OCN23F EDDF-LEIB

Flight info

Callsign OCN23F
Flight time N/A
Altitude 35000
Route ANEKI Y163 HERBI Y164 MOPAN DCT LUTIX DCT BENOT DCT NEMOS DCT GEVEA DCT INCUS DCT BALSI DCT RETNO DCT TUPOX DCT MTG DCT DIVKO DCT VATIR DCT PIVUS DCT SULID DCT DIMIB DCT POS
Aircraft A320/M-SDE2E3FGIJ1LORWXYZ/HB1

Departure

Time N/A
Airport Frankfurt Main Airport (EDDF)

Arrival

Time 2026-05-04 20:15
Airport Ibiza Airport (LEIB)
Time Latitude Longitude Altitude Speed Heading
2026-05-04 18:30 48.16189 8.09177 35007 ft 411 kts 207°
2026-05-04 18:31 48.13590 8.07267 35008 ft 410 kts 207°
2026-05-04 18:31 48.08506 8.03534 35017 ft 410 kts 207°
2026-05-04 18:32 48.03365 7.99746 35011 ft 409 kts 207°
2026-05-04 18:32 47.98254 7.95983 35019 ft 409 kts 207°
2026-05-04 18:33 47.93144 7.92238 35005 ft 409 kts 207°
2026-05-04 18:33 47.88029 7.88499 35010 ft 409 kts 207°
2026-05-04 18:34 47.82947 7.84790 35008 ft 409 kts 207°
2026-05-04 18:34 47.77796 7.81043 35009 ft 410 kts 207°
2026-05-04 18:35 47.72708 7.77350 34994 ft 410 kts 207°
2026-05-04 18:35 47.67649 7.73358 34989 ft 409 kts 211°
2026-05-04 18:36 47.62767 7.69138 34986 ft 409 kts 211°
2026-05-04 18:36 47.57848 7.64883 34988 ft 410 kts 211°
2026-05-04 18:37 47.52901 7.60685 34983 ft 410 kts 211°
2026-05-04 18:37 47.47943 7.56538 34988 ft 410 kts 211°
2026-05-04 18:38 47.42971 7.52396 34990 ft 410 kts 211°
2026-05-04 18:38 47.38008 7.48244 35035 ft 410 kts 210°
2026-05-04 18:39 47.33049 7.44106 35023 ft 410 kts 211°
2026-05-04 18:39 47.28089 7.39976 35037 ft 409 kts 210°
2026-05-04 18:40 47.23123 7.35854 35029 ft 409 kts 210°
2026-05-04 18:40 47.18161 7.31749 35034 ft 409 kts 210°
2026-05-04 18:41 47.14037 7.28331 35032 ft 409 kts 210°
2026-05-04 18:41 47.09064 7.24244 35027 ft 410 kts 210°
2026-05-04 18:42 47.04088 7.20169 35032 ft 409 kts 210°
2026-05-04 18:42 46.99117 7.16093 35031 ft 409 kts 210°
2026-05-04 18:43 46.94145 7.12027 35018 ft 409 kts 211°
2026-05-04 18:43 46.89174 7.07971 35024 ft 409 kts 211°
2026-05-04 18:44 46.84201 7.03921 35024 ft 409 kts 211°
2026-05-04 18:44 46.79227 6.99878 35025 ft 409 kts 211°
2026-05-04 18:45 46.74248 6.95848 35014 ft 409 kts 211°
2026-05-04 18:45 46.69272 6.91825 35026 ft 409 kts 211°
2026-05-04 18:46 46.64295 6.87804 35054 ft 408 kts 211°
2026-05-04 18:46 46.59328 6.83797 35054 ft 408 kts 211°
2026-05-04 18:47 46.54376 6.79809 35046 ft 407 kts 211°
2026-05-04 18:47 46.49426 6.75840 35045 ft 406 kts 211°
2026-05-04 18:48 46.44482 6.71887 35043 ft 405 kts 211°
2026-05-04 18:48 46.39544 6.67940 35041 ft 405 kts 211°
2026-05-04 18:49 46.34608 6.64002 35037 ft 405 kts 211°
2026-05-04 18:49 46.29680 6.60088 35036 ft 403 kts 211°
2026-05-04 18:50 46.24759 6.56189 35041 ft 403 kts 211°
2026-05-04 18:50 46.19865 6.52314 35045 ft 403 kts 211°
2026-05-04 18:51 46.14945 6.48424 35038 ft 403 kts 211°
2026-05-04 18:51 46.10037 6.44550 35040 ft 402 kts 211°
2026-05-04 18:52 46.05133 6.40681 35032 ft 401 kts 211°
2026-05-04 18:52 46.00231 6.36835 35033 ft 401 kts 211°
2026-05-04 18:53 45.95326 6.32994 35034 ft 401 kts 211°
2026-05-04 18:53 45.90425 6.29156 35036 ft 401 kts 210°
2026-05-04 18:54 45.85535 6.25324 35029 ft 400 kts 210°
2026-05-04 18:54 45.80637 6.21512 35031 ft 400 kts 210°
2026-05-04 18:55 45.75564 6.18198 35007 ft 402 kts 203°
2026-05-04 18:55 45.67693 6.13927 35016 ft 404 kts 203°
2026-05-04 18:56 45.62468 6.11114 35009 ft 404 kts 203°
2026-05-04 18:56 45.57199 6.08272 35002 ft 405 kts 203°
2026-05-04 18:57 45.51911 6.05429 35006 ft 406 kts 203°
2026-05-04 18:57 45.46612 6.02589 35012 ft 407 kts 203°
2026-05-04 18:58 45.41313 5.99730 35005 ft 407 kts 203°
2026-05-04 18:58 45.36017 5.96852 35003 ft 408 kts 203°
2026-05-04 18:59 45.30715 5.93971 35007 ft 408 kts 203°
2026-05-04 18:59 45.25415 5.91095 35007 ft 408 kts 203°
2026-05-04 19:00 45.20115 5.88236 34996 ft 408 kts 202°
2026-05-04 19:00 45.14806 5.85392 35000 ft 408 kts 202°
2026-05-04 19:01 45.09503 5.82541 34989 ft 407 kts 203°
2026-05-04 19:01 45.04206 5.79688 34979 ft 407 kts 202°
2026-05-04 19:02 44.98949 5.76875 34984 ft 406 kts 203°
2026-05-04 19:02 44.93660 5.74047 34985 ft 406 kts 203°
2026-05-04 19:03 44.88378 5.71230 35008 ft 406 kts 202°
2026-05-04 19:03 44.83092 5.68426 34994 ft 406 kts 202°
2026-05-04 19:04 44.77808 5.65619 34993 ft 405 kts 202°
2026-05-04 19:04 44.72530 5.62813 34984 ft 405 kts 202°
2026-05-04 19:05 44.67255 5.60019 34987 ft 405 kts 202°
2026-05-04 19:05 44.61971 5.57233 34991 ft 406 kts 202°
2026-05-04 19:06 44.56680 5.54454 34994 ft 406 kts 202°
2026-05-04 19:06 44.51394 5.51673 34996 ft 406 kts 202°
2026-05-04 19:07 44.46106 5.48899 34996 ft 406 kts 202°
2026-05-04 19:07 44.40821 5.46133 34988 ft 406 kts 202°
2026-05-04 19:08 44.35534 5.43376 34992 ft 406 kts 202°
2026-05-04 19:08 44.30286 5.40623 34997 ft 406 kts 202°
2026-05-04 19:09 44.25013 5.37860 34991 ft 405 kts 202°
2026-05-04 19:09 44.19737 5.35122 34996 ft 404 kts 202°
2026-05-04 19:10 44.14466 5.32393 35013 ft 404 kts 202°
2026-05-04 19:10 44.09196 5.29659 34988 ft 404 kts 202°
2026-05-04 19:11 44.03932 5.26933 34990 ft 403 kts 202°
2026-05-04 19:11 43.98671 5.24220 34990 ft 403 kts 202°
2026-05-04 19:12 43.90787 5.20177 34976 ft 402 kts 202°
2026-05-04 19:13 43.85538 5.17487 34977 ft 402 kts 203°
2026-05-04 19:13 43.80306 5.14797 34978 ft 401 kts 203°
2026-05-04 19:14 43.75077 5.12112 34976 ft 400 kts 203°
2026-05-04 19:14 43.69855 5.09443 34957 ft 400 kts 203°
2026-05-04 19:15 43.64636 5.06793 34962 ft 399 kts 203°
2026-05-04 19:15 43.59421 5.04143 34967 ft 399 kts 203°
2026-05-04 19:16 43.54208 5.01492 34969 ft 399 kts 203°
2026-05-04 19:16 43.48994 4.98841 34961 ft 399 kts 203°
2026-05-04 19:17 43.43775 4.96207 34966 ft 400 kts 203°
2026-05-04 19:17 43.38545 4.93595 34982 ft 400 kts 202°
2026-05-04 19:18 43.33299 4.91050 34972 ft 400 kts 202°
2026-05-04 19:18 43.28046 4.88518 34951 ft 400 kts 202°
2026-05-04 19:19 43.22786 4.85981 34949 ft 401 kts 202°
2026-05-04 19:19 43.17525 4.83441 34951 ft 401 kts 202°
2026-05-04 19:20 43.12262 4.80894 34931 ft 401 kts 202°
2026-05-04 19:20 43.06999 4.78349 34947 ft 401 kts 203°
2026-05-04 19:21 43.02074 4.75001 34951 ft 398 kts 211°
2026-05-04 19:21 42.97239 4.71325 34945 ft 398 kts 211°
2026-05-04 19:22 42.92401 4.67661 34935 ft 398 kts 211°
2026-05-04 19:22 42.87558 4.64009 34937 ft 397 kts 211°
2026-05-04 19:23 42.82725 4.60360 34940 ft 397 kts 211°
2026-05-04 19:23 42.77894 4.56714 34960 ft 397 kts 211°
2026-05-04 19:24 42.73055 4.53079 34942 ft 397 kts 211°
2026-05-04 19:24 42.68210 4.49448 34932 ft 398 kts 211°
2026-05-04 19:25 42.63363 4.45805 34923 ft 398 kts 211°
2026-05-04 19:25 42.58510 4.42174 34922 ft 398 kts 211°
2026-05-04 19:26 42.53649 4.38545 34920 ft 399 kts 211°
2026-05-04 19:26 42.48789 4.34919 34915 ft 399 kts 211°
2026-05-04 19:27 42.43961 4.31328 34927 ft 398 kts 211°
2026-05-04 19:27 42.39099 4.27719 34932 ft 398 kts 211°
2026-05-04 19:28 42.34234 4.24120 34930 ft 399 kts 211°
2026-05-04 19:28 42.29373 4.20525 34921 ft 398 kts 211°
2026-05-04 19:29 42.24510 4.16940 34949 ft 398 kts 211°
2026-05-04 19:29 42.19656 4.13368 34945 ft 397 kts 211°
2026-05-04 19:30 42.15625 4.10398 34936 ft 397 kts 211°
2026-05-04 19:30 42.10776 4.06831 34923 ft 397 kts 211°
2026-05-04 19:31 42.05924 4.03275 34924 ft 397 kts 211°
2026-05-04 19:31 42.01073 3.99726 34925 ft 397 kts 211°
2026-05-04 19:32 41.96218 3.96176 34925 ft 397 kts 211°
2026-05-04 19:32 41.91363 3.92631 34916 ft 397 kts 211°
2026-05-04 19:33 41.86434 3.89260 34923 ft 398 kts 209°
2026-05-04 19:33 41.81468 3.85998 34934 ft 398 kts 209°
2026-05-04 19:34 41.76505 3.82719 34942 ft 397 kts 209°
2026-05-04 19:34 41.71565 3.79403 34963 ft 397 kts 210°
2026-05-04 19:35 41.66626 3.76087 34952 ft 397 kts 210°
2026-05-04 19:35 41.61691 3.72786 34951 ft 396 kts 210°
2026-05-04 19:36 41.56759 3.69493 34950 ft 396 kts 210°
2026-05-04 19:36 41.51834 3.66210 34945 ft 396 kts 210°
2026-05-04 19:37 41.46907 3.62942 34928 ft 395 kts 210°
2026-05-04 19:37 41.42009 3.59703 34934 ft 395 kts 210°
2026-05-04 19:38 41.37087 3.56450 34938 ft 395 kts 210°
2026-05-04 19:38 41.32167 3.53196 34938 ft 395 kts 210°
2026-05-04 19:39 41.27249 3.49951 34932 ft 395 kts 210°
2026-05-04 19:39 41.22336 3.46708 34930 ft 394 kts 210°
2026-05-04 19:40 41.17276 3.43860 34931 ft 400 kts 199°
2026-05-04 19:40 41.11799 3.42380 34933 ft 402 kts 196°
2026-05-04 19:41 41.06315 3.40941 34909 ft 402 kts 197°
2026-05-04 19:41 41.00827 3.39504 34919 ft 402 kts 197°
2026-05-04 19:42 40.95337 3.38056 34924 ft 402 kts 197°
2026-05-04 19:42 40.89851 3.36610 34925 ft 402 kts 197°
2026-05-04 19:43 40.84360 3.35166 34914 ft 402 kts 197°
2026-05-04 19:43 40.78867 3.33725 34922 ft 402 kts 197°
2026-05-04 19:44 40.73372 3.32288 34927 ft 403 kts 197°
2026-05-04 19:44 40.67874 3.30856 34934 ft 403 kts 197°
2026-05-04 19:45 40.62378 3.29426 34938 ft 403 kts 197°
2026-05-04 19:45 40.56880 3.27997 34939 ft 403 kts 197°
2026-05-04 19:46 40.51386 3.26558 34943 ft 402 kts 197°
2026-05-04 19:46 40.45895 3.25122 34943 ft 403 kts 197°
2026-05-04 19:47 40.40395 3.23707 34923 ft 402 kts 197°
2026-05-04 19:47 40.34942 3.22301 34941 ft 402 kts 197°
2026-05-04 19:48 40.29457 3.20882 34948 ft 401 kts 197°
2026-05-04 19:48 40.23981 3.19462 34946 ft 401 kts 197°
2026-05-04 19:48 40.21239 3.18757 34734 ft 401 kts 197°
2026-05-04 19:49 40.18505 3.18058 34467 ft 398 kts 198°
2026-05-04 19:49 40.15793 3.17365 34230 ft 396 kts 198°
2026-05-04 19:49 40.13094 3.16673 34001 ft 395 kts 198°
2026-05-04 19:49 40.10404 3.15981 33735 ft 394 kts 198°
2026-05-04 19:50 40.07712 3.15289 33460 ft 394 kts 198°
2026-05-04 19:50 40.05016 3.14598 33192 ft 395 kts 198°
2026-05-04 19:50 40.02315 3.13902 32926 ft 396 kts 198°
2026-05-04 19:50 39.99608 3.13202 32663 ft 397 kts 198°
2026-05-04 19:51 39.96908 3.12457 32384 ft 394 kts 202°
2026-05-04 19:51 39.94365 3.11250 32128 ft 386 kts 211°
2026-05-04 19:51 39.92064 3.09508 31870 ft 380 kts 219°
2026-05-04 19:51 39.90058 3.07301 31622 ft 376 kts 227°
2026-05-04 19:52 39.88334 3.04759 31406 ft 374 kts 231°
2026-05-04 19:52 39.86638 3.02179 31160 ft 375 kts 230°
2026-05-04 19:52 39.84934 2.99603 30910 ft 375 kts 230°
2026-05-04 19:52 39.83230 2.97035 30659 ft 374 kts 230°
2026-05-04 19:53 39.81538 2.94488 30145 ft 370 kts 230°
2026-05-04 19:53 39.79859 2.91967 29490 ft 368 kts 230°
2026-05-04 19:53 39.78192 2.89463 28844 ft 364 kts 230°
2026-05-04 19:53 39.76541 2.86983 28190 ft 361 kts 230°
2026-05-04 19:54 39.74910 2.84533 27581 ft 357 kts 230°
2026-05-04 19:54 39.73292 2.82104 27004 ft 353 kts 230°
2026-05-04 19:54 39.71712 2.79731 26433 ft 350 kts 230°
2026-05-04 19:54 39.70126 2.77345 25846 ft 348 kts 230°
2026-05-04 19:55 39.68551 2.74980 25270 ft 345 kts 230°
2026-05-04 19:55 39.66987 2.72634 24712 ft 342 kts 230°
2026-05-04 19:55 39.65433 2.70305 24160 ft 340 kts 230°
2026-05-04 19:55 39.63887 2.67992 23635 ft 338 kts 230°
2026-05-04 19:56 39.62351 2.65695 23065 ft 336 kts 230°
2026-05-04 19:56 39.60825 2.63413 22457 ft 334 kts 230°
2026-05-04 19:56 39.59306 2.61144 21877 ft 332 kts 230°
2026-05-04 19:56 39.57792 2.58889 21314 ft 331 kts 230°
2026-05-04 19:57 39.56284 2.56644 20749 ft 330 kts 230°
2026-05-04 19:57 39.54783 2.54409 20217 ft 328 kts 230°
2026-05-04 19:57 39.53287 2.52182 19731 ft 326 kts 231°
2026-05-04 19:57 39.51800 2.49970 19246 ft 325 kts 231°
2026-05-04 19:58 39.50318 2.47767 18767 ft 324 kts 231°
2026-05-04 19:58 39.48839 2.45571 18294 ft 323 kts 231°
2026-05-04 19:58 39.47366 2.43384 17763 ft 322 kts 231°
2026-05-04 19:58 39.45895 2.41203 17259 ft 321 kts 231°
2026-05-04 19:59 39.44435 2.39038 16778 ft 319 kts 231°
2026-05-04 19:59 39.42982 2.36883 16305 ft 317 kts 231°
2026-05-04 19:59 39.41536 2.34742 15835 ft 315 kts 230°
2026-05-04 19:59 39.40094 2.32615 15384 ft 314 kts 230°
2026-05-04 20:00 39.38661 2.30497 14931 ft 312 kts 230°
2026-05-04 20:00 39.37236 2.28390 14502 ft 311 kts 230°
2026-05-04 20:00 39.35818 2.26294 14051 ft 309 kts 230°
2026-05-04 20:00 39.34400 2.24204 13610 ft 308 kts 230°
2026-05-04 20:01 39.32990 2.22126 13105 ft 307 kts 230°
2026-05-04 20:01 39.31585 2.20061 12644 ft 305 kts 230°
2026-05-04 20:01 39.30191 2.18013 12211 ft 302 kts 230°
2026-05-04 20:01 39.28816 2.15992 11955 ft 295 kts 230°
2026-05-04 20:02 39.27507 2.14067 11834 ft 284 kts 230°
2026-05-04 20:02 39.26213 2.12166 11698 ft 274 kts 230°
2026-05-04 20:02 39.24971 2.10342 11443 ft 269 kts 230°
2026-05-04 20:02 39.23744 2.08534 11098 ft 267 kts 230°
2026-05-04 20:03 39.22539 2.06758 10761 ft 266 kts 230°
2026-05-04 20:03 39.21320 2.04963 10404 ft 266 kts 230°
2026-05-04 20:03 39.20102 2.03174 10049 ft 265 kts 230°
2026-05-04 20:03 39.18884 2.01391 9669 ft 265 kts 230°
2026-05-04 20:04 39.17668 1.99615 9278 ft 264 kts 230°
2026-05-04 20:04 39.16454 1.97849 8861 ft 263 kts 230°
2026-05-04 20:04 39.15240 1.96083 8465 ft 263 kts 230°
2026-05-04 20:04 39.14032 1.94322 8072 ft 262 kts 230°
2026-05-04 20:05 39.12828 1.92564 7676 ft 261 kts 230°
2026-05-04 20:05 39.11628 1.90811 7296 ft 261 kts 230°
2026-05-04 20:05 39.10432 1.89062 6883 ft 260 kts 230°
2026-05-04 20:05 39.09234 1.87309 6479 ft 260 kts 231°
2026-05-04 20:06 39.08039 1.85565 6089 ft 259 kts 230°
2026-05-04 20:06 39.06862 1.83852 5840 ft 252 kts 231°
2026-05-04 20:06 39.05768 1.82136 5593 ft 243 kts 238°
2026-05-04 20:06 39.04975 1.80263 5388 ft 234 kts 243°
2026-05-04 20:07 39.04207 1.78457 5194 ft 227 kts 242°
2026-05-04 20:07 39.03469 1.76683 4964 ft 223 kts 243°
2026-05-04 20:07 39.02751 1.74931 4781 ft 221 kts 243°
2026-05-04 20:07 39.02035 1.73177 4600 ft 222 kts 243°
2026-05-04 20:08 39.01325 1.71442 4441 ft 215 kts 243°
2026-05-04 20:08 39.00644 1.69778 4318 ft 206 kts 243°
2026-05-04 20:08 38.99988 1.68176 4190 ft 199 kts 243°
2026-05-04 20:08 38.99358 1.66637 4095 ft 190 kts 243°
2026-05-04 20:09 38.98759 1.65176 4037 ft 179 kts 243°
2026-05-04 20:09 38.98377 1.64246 3996 ft 177 kts 243°
2026-05-04 20:09 38.97616 1.62390 3912 ft 174 kts 243°
2026-05-04 20:09 38.97053 1.61018 3768 ft 173 kts 243°
2026-05-04 20:10 38.96494 1.59657 3564 ft 171 kts 243°
2026-05-04 20:10 38.95940 1.58308 3361 ft 170 kts 242°
2026-05-04 20:10 38.95392 1.56974 3142 ft 168 kts 242°
2026-05-04 20:10 38.94847 1.55650 2919 ft 167 kts 242°
2026-05-04 20:11 38.94308 1.54339 2701 ft 166 kts 242°
2026-05-04 20:11 38.93773 1.53040 2485 ft 163 kts 242°
2026-05-04 20:11 38.93242 1.51749 2271 ft 165 kts 242°
2026-05-04 20:11 38.92703 1.50440 2053 ft 166 kts 241°
2026-05-04 20:12 38.92169 1.49144 1836 ft 161 kts 240°
2026-05-04 20:12 38.91665 1.47922 1635 ft 147 kts 240°
2026-05-04 20:12 38.91212 1.46824 1461 ft 137 kts 241°
2026-05-04 20:12 38.90765 1.45740 1270 ft 134 kts 241°
2026-05-04 20:13 38.90340 1.44709 1090 ft 131 kts 239°
2026-05-04 20:13 38.89909 1.43666 908 ft 133 kts 239°
2026-05-04 20:13 38.89477 1.42621 732 ft 132 kts 240°
2026-05-04 20:13 38.89049 1.41583 558 ft 130 kts 238°
2026-05-04 20:14 38.88613 1.40540 373 ft 130 kts 240°
2026-05-04 20:14 38.88192 1.39531 221 ft 131 kts 239°
2026-05-04 20:14 38.87776 1.38495 28 ft 129 kts 239°
2026-05-04 20:14 38.87398 1.37594 9 ft 92 kts 243°
2026-05-04 20:15 38.87165 1.37025 12 ft 58 kts 243°
2026-05-04 20:15 38.87098 1.36674 8 ft 34 kts 275°
2026-05-04 20:15 38.87156 1.36551 8 ft 7 kts 20°
2026-05-04 20:15 38.87176 1.36588 8 ft 4 kts 62°
2026-05-04 20:16 38.87194 1.36632 8 ft 16 kts 64°
2026-05-04 20:16 38.87292 1.36849 9 ft 19 kts 25°
2026-05-04 20:16 38.87368 1.36820 9 ft 16 kts 332°
2026-05-04 20:16 38.87464 1.36858 8 ft 12 kts 65°
2026-05-04 20:17 38.87489 1.36924 8 ft 12 kts 63°
2026-05-04 20:17 38.87525 1.37013 9 ft 10 kts 54°
2026-05-04 20:17 38.87585 1.36996 8 ft 1 kts 332°
2026-05-04 20:17 38.87589 1.36994 8 ft 0 kts 332°
2026-05-04 20:18 38.87592 1.36992 8 ft 0 kts 332°